CZ-4 DEB, 29039

Orbit data source: Space-Track

CZ-4 DEB, 29039 is space debris in SSO originally from a launch on Thu, 14 Oct 1999 UTC launched from the Taiyaun Space Center, China (TSC). Debris objects in space refer to the collection of defunct objects orbiting the Earth. Examples of debris include non-operational satellites, rocket bodies, and fragments generated from explosions, collisions, or faulty payload assembly.

Loading next visibility...
Identifier
29039, 1999-057NJ
Orbit
SSO
Country
Flag of CNCN / PRC
Related business
Manufacturer
Unknown
Mission
Spacecraft
Bus & Motor
Unknown
Mass
Unknown
Launch date (UTC)
1999-10-14 (26 years ago)
Launch vehicle
Unknown
Launch site
Taiyaun Space Center, China (TSC)
Object type
Payload
Rocket body
Debris
Shape & HBR
Unknown shape, 0.1 m
Radar Cross Section
Small (<0.1 m²)

Expand to show TLE details & history
Last TLE update: 9 hours ago

TLE from 9 hours ago
0 CZ-4 DEB
1 29039U 99057NJ  26038.08203637  .00006447  00000-0  95625-3 0  9992
2 29039  98.3574  89.3903 0047311  29.5926   0.0079 14.74671135228324
Epoch: 2026-02-07T01:58Z
TLE epoch observation values (Epoch: 2026-02-07T01:58:07.942Z)
Latitude
29.30595°
Longitude
-82.0577°
Altitude
616.661 km
Speed
7.571 km/s
True Right ascension
05h 38m 44s
True Declination
29° 09' 23"
Sunlit
Object was in full shadow at epoch
Visualization orbit readout
Latitude
Unknown
Longitude
Unknown
Altitude
Unknown
Speed
Unknown
Apparent Right ascension
Unknown
Apparent Declination
Unknown
Sunlit
N/A
Visualization observer readout
Local Sidereal Time
13:33:40
Azimuth
Unknown
Elevation
Unknown
Doppler factor
Unknown
Orbital elements
Apogee altitude
676.483 km
Perigee altitude
610.045 km
Semi-major axis
7,021.401 km
Eccentricity
0.00473
Inclination
98.3574°
RAAN
89.3903°
Arg. of periapsis
29.5926°
True anomaly
0.00798°
Mean anomaly
0.0079°
Eccentric anomaly
0.00794°
Mean motion
3.68899 °/min
Orbital period
97.59 mins
BSTAR
0.00095625
Loading maneuver chart data...
Computing Atmospheric mass density...

Documentation

Showing up to 5 results
|